Regional Weather Roundup
Issued by NWS Newport/Morehead, NC

Current Version | Previous Version | Graphics & Text | Print | Product List | Glossary Off
Versions: 1 2 3 4 5 6 7 8 9 10 11 12 13 14 15 16 17 18 19 20 21 22 23 24 25 26 27 28 29 30 31 32 33 34 35 36 37 38 39 40 41 42 43 44 45 46 47 48 49 50

111
ASUS42 KMHX 260513
RWRMHX
WEATHER ROUNDUP FOR EASTERN NORTH CAROLINA
NATIONAL WEATHER SERVICE NEWPORT/MOREHEAD CITY NC
100 AM EDT THU MAY 26 2016

NOTE: "FAIR" INDICATES FEW OR NO CLOUDS BELOW 12,000 FEET
WITH NO SIGNIFICANT WEATHER AND/OR OBSTRUCTIONS TO VISIBILITY

NCZ015>017-031-032-045>047-102-103-260600-
NORTH COAST

CITY           SKY/WX    TMP DP  RH WIND       PRES   REMARKS
EDENTON        PTCLDY   N/A N/A N/A SW6       30.19R
ELIZABETH CITY CLEAR     70  60  70 SW8       30.17S
KITTY HAWK     PTCLDY    69  61  74 S3        30.17S
MANTEO         MOCLDY    70  64  81 SW7       30.19S

$$

NCZ045>047-081-094-103-104-260600-
CENTRAL COAST

CITY           SKY/WX    TMP DP  RH WIND       PRES   REMARKS
FRISCO         PTCLDY    71  66  84 SW7       30.21S

$$

NCZ095-097-098-100-101-260600-
SOUTHERN COAST

CITY           SKY/WX    TMP DP  RH WIND       PRES   REMARKS
BEAUFORT       CLEAR     71  68  90 SW7       30.21S
CEDAR ISLAND   NOT AVBL
JACKSONVILLE   PTCLDY    69  65  86 CALM      30.20S
PINEY ISLAND   CLEAR    N/A N/A N/A SW7       30.20
WILMINGTON     PTCLDY    71  66  84 S7        30.20F


$$

NCZ011>013-027>030-043-044-078>080-089-090>093-098-260600-
COASTAL PLAIN

CITY           SKY/WX    TMP DP  RH WIND       PRES   REMARKS
AHOSKIE        NOT AVBL
CLINTON        PTCLDY    69  65  88 CALM      30.19F
ELIZABETHTOWN  NOT AVBL
GOLDSBORO      PTCLDY    71  65  81 S5        30.17S
GREENVILLE     PTCLDY    70  61  73 SW8       30.19S
HAVELOCK       CLEAR     68  64  87 SW3       30.21S
KENANSVILLE    MOCLDY    69  62  77 CALM      30.21S
KINSTON        PTCLDY    71  59  66 SW8       30.20S
NEW BERN       PTCLDY    68  65  90 SW6       30.21S
RICHLANDS      CLOUDY    67  64  90 S3        30.21S
ROCKY MOUNT    PTCLDY    70  62  76 S8        30.17S
WASHINGTON     PTCLDY    68  59  73 S5        30.19S
WHITEVILLE     PTCLDY    71  67  87 S7        30.19F

$$

AMZ130-135-150-152-154-156-158-170-250-252-270-ANZ085-086-088-633-658-670-260600-
MARINE OBSERVATIONS

STATION/POSITION TIME  TEMP    WIND        PRES    WAVE   SWELL
                       AIR SEA DIR/SP/G            HT/PER HT/PER
                 (UTC) (F)     (DEG/KT/KT) (MB)    (FT/S) (FT/S)
CHESAPEAKE LIGHT 0500   71     220/ 17/ 17 1021.4
64 E VA BEACH    0450   64 58  210/ 10/ 12 1021.2    3/ 8   2/ 8
DUCK             0400   72 60  220/ 11/ 12 1021.2
2 E DUCK         0441      63                N/A     2/ 8
OREGON INLET     0400   72 74  200/ 12/ 14 1022.1
13E OREGON INLT  0500      65                N/A     2/ 8   2/ 8
HATTERAS CG      0400   71 72  210/  7/  9 1022.3
DIAMOND BUOY     0450   72 69  230/  8/  8 1022.8    2/ 9   2/ 9
CAPE LOOKOUT     0500   72     220/  5/  6 1022.8
BEAUFORT LAB     0400   72 70  210/  6/  9 1022.0
30 SE NEW RVR IN 0455      74                N/A     2/ 9
27 SE WRIGHTSVLE 0408   76 74  230/  8/ 12 1022.6
5 SE WRIGHTSVLE  0408   74 73  220/ 10/ 12 1023.5
225 S CAPE HAT   0450   75 78   70/ 10/ 14 1023.8    2/10   2/10
41 SE CHARLESTON 0450   77 76  210/  8/ 10 1023.0    2/ 8   2/ 8

$$




USA.gov is the U.S. government's official web portal to all federal, state and local government web resources and services.